THORAD DELTA 1 DEB

Satellite information

Favourite Embed

Satellite Type and Status

DEBRISIN ORBIT

Key statistics

Satellite THORAD DELTA 1 DEB at a glance.

Uptime

18611

Days in orbit

Revolutions

≈ 12.5

Per day

Orbit

SSO

Sun Synchronous Orbit

Inclination

102.0

Latest

Satellite identification and parameters

Extended collection of information and parameters for THORAD DELTA 1 DEB.

Object identification

Identified? True

Debris? True

Object name: THORAD DELTA 1 DEB

International designator: 1974-089AG

Object number (NORAD): 8166

Object ID (CCSDS): 8166

Country: UNITED STATES OF AMERICA (US)

Current information (Y/N): Y

RCS size: SMALL

Orbital parameters

Period: 115.053 minutes

Inclination: 102.0005 deg

SMA: 7835.941 km

Apoapsis: 1487.556 km

Periapsis: 1428.056 km

RAAN: 229.9899 deg

Eccentricy: 0.0037966

Argument of periapsis: 193.6826 deg

Mean anomaly: 317.765 deg

Mean motion: 12.51601384 rev/day

Mean motion (dot): 0.00000038 rev/day2

B* drag term: 0.00054124 1/REarth

Two-line elements (TLE)

Creation date: Sept. 26, 2025, 6:16 p.m.

Reference frame: TEME

Reference center: EARTH

Epoch: Aug. 28, 2025, 11:24 a.m. UTC

TLE line 0: 0 THORAD DELTA 1 DEB

TLE line 1: 1 8166U 74089AG 25240.47537478 .00000038 00000-0 54124-3 0 9997

TLE line 2: 2 8166 102.0005 229.9899 0037966 193.6826 317.7650 12.51601384317332

Live tracking on map

Real-time ground track for satellite THORAD DELTA 1 DEB.

In-orbit conjunctions

A list of the most updated potential collisions computed for object THORAD DELTA 1 DEB.

Target Orbit TCA Probability of collision Miss distance Type
ESSA 7 (TOS-E) SSO 2025-02-28 03:13:46 0.000138653 318.0 (m) PAYLOAD
COSMOS 1798 LEO 2025-01-19 13:40:37 0.0002623428 282.0 (m) PAYLOAD
COSMOS 1721 LEO 2025-01-07 18:28:21 0.0005787253 247.0 (m) PAYLOAD

Associated space launch

Meteorological satellite using radiometric imaging

THORAD DELTA 1 DEB was lifted into orbit during the mission ‘Delta 2310 | NOAA 4’, on board a Delta 2310 space rocket.

The launch took place on Nov. 15, 1974, 5:11 p.m. from Space Launch Complex 2W.

For more information about the launch, click the button.

Launch to space Delta 2310 | NOAA 4
Delta 2310 | NOAA 4

Agency: N/A

Status: Launch Successful

Launch date: Nov. 15, 1974, 5:11 p.m. UTC

Rocket: Delta 2310

Launch pad: Space Launch Complex 2W

Location: Vandenberg SFB, CA, USA

...

Latest news about this satellite

There are no fresh news available about this satellite. Check back as we update our databases every day.


Newsletter sign-up

Weekly statistics, charts and insights to help you stay on top of the space industry.